A/2018 W3

Japanese version
Home page
Updated on August 27, 2022

---------------------------------------------------------------------

* Profile

Discovery Date November 29, 2018
Magnitude 21.2 mag
Discoverer Cerro Tololo-DECam

* Orbital Elements

Epoch 2022 Aug. 9.0 TT = JDT 2459800.5                                          
T 2021 Apr. 13.03598 TT                                 Rudenko                 
q   4.2906030            (2000.0)            P               Q                  
z  +0.0014662      Peri.  313.96516     -0.04373232     -0.39480798             
 +/-0.0000028      Node   251.66770     -0.38089806     -0.84262698             
e   0.9937090      Incl.  104.80784     -0.92358224     +0.36620545             
H   10.5                                                                        
From 3649 observations 2018 Feb. 7-2021 June 11, mean residual 0".2.            

* Magnitudes Graph

        H = 10.5  G = 0.15

---------------------------------------------------------------------

The orbital elements are published on M.P.E.C. 2022-Q17.
The magnitudes graphs are made with Comet for Windows.

---------------------------------------------------------------------

Copyright(C) Seiichi Yoshida (comet@aerith.net). All rights reserved.